Location: Columbia
(38.9520°N, 92.3340°W)
Time: 12:25:22
(UTC-05:00)

CZ-2C R/B - Visible Passes

Search period start: 26 August 2016 00:00
Search period end: 05 September 2016 00:00
Orbit: 704 x 909 km, 98.2° (Epoch: 25 August)

Date Brightness Start Highest point End Pass type
(mag) Time Alt. Az. Time Alt. Az. Time Alt. Az.
26 Aug 5.6 01:04:03 15° N 01:04:03 15° N 01:04:56 10° N visible
27 Aug 5.7 00:39:04 12° NNE 00:39:04 12° NNE 00:39:37 10° NNE visible
28 Aug 5.7 01:55:09 12° NNW 01:55:09 12° NNW 01:55:32 10° NNW visible
29 Aug 5.7 01:30:10 14° N 01:30:10 14° N 01:30:47 10° N visible
30 Aug 5.8 01:05:11 13° N 01:05:11 13° N 01:05:49 10° N visible
31 Aug 5.8 00:40:12 11° NNE 00:40:12 11° NNE 00:40:33 10° NNE visible
01 Sep 5.9 01:56:17 11° NNW 01:56:17 11° NNW 01:56:23 10° NNW visible
02 Sep 5.9 01:31:19 12° N 01:31:19 12° N 01:31:40 10° N visible
03 Sep 5.9 01:06:20 12° N 01:06:20 12° N 01:06:43 10° N visible
04 Sep 6.0 00:41:21 11° NNE 00:41:21 11° NNE 00:41:30 10° NNE visible
